Wind_Speed
16 13 13 16 6 7 7 10 8 14 12 10 5 8 15 17 1 9 9 22 23 22 19 17 15 14 12 13 13 12 11 11 11 10 10 12 12 12 11 9 8 8 7 5 4 3 2 2 2
13 17 18 6 9 14 4 12 19 21 9 4 6 6 16 15 16 12 12 21 22 20 18 16 14 13 12 12 12 12 12 11 11 9 10 11 11 10 10 9 6 6 6 5 4 3 2 2 1
15 11 8 7 13 12 4 13 14 27 6 2 4 3 9 9 11 11 22 24 22 21 18 16 14 13 12 10 10 11 11 10 11 10 9 9 9 10 9 7 6 5 4 4 2 1 1 1 2
10 9 8 12 18 7 6 2 6 9 7 6 7 7 7 10 10 17 22 22 22 20 16 17 15 13 11 11 10 10 10 11 10 10 8 7 7 7 9 8 6 5 4 2 1 2 2 3 4
19 9 13 17 21 12 7 10 13 16 13 13 17 12 11 15 21 21 22 20 21 22 17 18 15 13 12 10 10 9 9 10 9 8 7 7 7 7 8 7 6 4 3 3 3 3 4 5 5
10 12 15 16 11 0 15 10 12 23 14 16 24 22 5 20 19 19 18 18 20 20 19 18 16 14 13 11 10 10 10 9 8 8 7 7 6 6 7 7 6 5 5 4 4 5 5 5 7
14 13 17 21 19 7 20 9 7 14 16 8 9 15 16 29 12 18 16 17 21 21 17 15 13 13 13 11 10 10 10 10 9 8 7 6 7 7 6 6 7 6 6 6 6 7 7 8 9
14 14 20 19 17 12 3 3 5 11 8 13 10 8 5 19 27 10 19 12 18 20 18 13 11 9 10 10 9 9 9 9 9 9 8 6 7 6 7 7 7 6 8 9 9 10 10 11 11
19 15 14 20 20 13 19 9 10 12 17 13 14 12 15 22 19 44 40 37 31 32 14 19 14 9 15 11 8 7 7 6 6 7 7 7 7 7 8 6 7 10 11 12 13 14 14 13 14
16 13 19 20 17 10 17 3 9 13 13 9 22 24 33 20 36 34 35 31 34 35 36 23 13 5 15 10 3 7 3 4 5 6 5 8 6 10 7 5 11 11 13 12 13 13 14 14 16
18 15 19 21 18 6 13 13 10 15 7 9 6 7 23 23 23 20 26 32 31 37 34 27 19 8 9 8 6 3 4 6 10 13 8 5 4 6 7 9 12 13 10 9 9 13 12 9 1
17 17 17 18 15 4 8 13 14 9 9 11 9 24 20 19 12 13 25 21 6 17 16 16 17 9 3 5 3 1 3 14 31 18 12 8 6 8 4 3 4 9 4 2 6 7 3 14 12
14 17 11 17 16 4 6 14 10 15 7 1 6 11 22 21 18 13 8 15 27 15 6 12 11 20 5 6 5 4 14 8 10 13 8 6 2 0 2 4 7 6 5 7 9 8 6 14 9
11 9 14 20 9 11 7 12 9 11 17 12 33 27 21 22 19 13 9 13 18 23 26 20 23 17 6 9 14 17 20 19 13 4 5 1 2 2 2 6 7 5 8 9 10 9 7 7 10
9 8 13 15 6 13 8 5 11 11 8 27 25 22 20 18 21 21 19 13 9 24 11 11 15 7 6 3 5 13 23 55 19 6 3 3 4 2 4 8 9 11 5 5 10 10 6 8 10
9 12 12 15 13 6 2 10 8 9 7 24 24 19 17 19 20 21 21 19 24 21 14 13 12 8 7 8 10 20 27 43 53 48 19 9 3 5 5 10 12 9 7 8 11 11 5 7 7
13 10 16 10 12 4 11 3 11 6 6 21 22 19 16 14 18 18 19 21 25 25 22 21 16 14 5 4 12 14 24 17 27 19 15 12 12 11 7 7 9 11 11 10 8 8 9 7 11
8 8 8 4 12 7 8 12 12 14 14 18 16 16 15 15 15 17 19 18 20 21 22 22 23 19 18 17 15 16 15 10 5 9 12 13 14 14 11 10 11 11 10 11 9 7 6 8 11
10 14 12 10 11 6 4 12 10 13 5 9 14 15 14 15 16 18 16 18 19 22 24 25 27 27 26 25 18 11 12 8 11 11 7 9 14 15 15 13 13 12 12 10 12 11 10 13 14
9 10 10 10 7 9 7 9 6 6 6 8 10 14 14 13 13 14 16 17 20 21 24 29 28 30 27 17 19 13 14 12 18 16 13 19 18 18 15 15 15 14 17 15 14 12 14 14 17
9 10 12 11 9 9 6 12 13 8 8 6 12 13 11 12 12 12 16 15 16 17 19 20 22 25 27 23 23 24 21 21 22 20 19 23 17 17 18 19 18 16 17 18 18 13 14 16 18
11 7 5 10 11 10 13 14 16 15 12 11 9 11 10 10 9 11 13 14 14 14 14 16 19 22 23 27 28 27 22 19 20 20 21 25 19 18 18 23 21 19 18 16 19 18 17 17 15
6 8 10 11 12 13 16 11 11 9 14 12 9 8 7 9 10 9 10 13 14 16 17 19 19 22 24 24 23 21 20 18 19 19 27 20 21 23 23 23 22 23 20 22 20 22 22 22 17
11 9 13 12 13 13 19 13 13 14 15 14 10 12 7 7 7 8 10 10 13 14 15 16 20 21 22 21 21 19 18 21 20 24 23 25 25 25 21 25 25 24 23 23 22 21 22 24 24
9 8 9 11 11 11 11 7 8 11 16 15 16 12 8 5 4 6 8 11 13 13 15 16 18 18 19 20 22 22 22 21 22 23 24 27 24 23 25 31 28 28 28 27 24 23 23 22 22
14 9 7 15 13 13 2 3 7 13 11 11 11 10 6 4 6 7 10 10 12 13 14 17 18 19 19 20 20 19 21 20 21 22 21 19 20 23 26 25 27 25 24 24 24 24 24 23 22
10 10 10 8 11 12 13 14 11 12 10 9 9 9 7 6 5 5 4 10 10 13 16 16 17 18 19 20 21 23 23 22 19 18 17 17 19 20 22 22 22 23 24 23 23 20 23 23 21
10 10 8 6 9 12 10 10 5 13 13 12 11 9 8 9 9 6 7 10 11 13 15 16 17 17 18 19 19 18 16 16 16 16 17 19 19 22 22 21 20 22 27 21 23 19 21 23 23
3 6 8 8 6 8 10 3 9 10 15 11 12 12 10 6 7 7 8 12 13 15 17 17 18 17 18 18 17 15 15 15 15 16 18 19 19 18 19 19 17 21 19 22 24 18 16 16 16
7 10 9 6 9 10 10 4 7 7 11 8 14 7 10 6 6 7 9 13 13 15 16 16 16 16 16 16 17 20 16 17 15 15 16 17 18 20 19 17 16 17 21 19 18 19 20 19 18
Wind_Direction
317 294 262 273 258 219 110 205 236 284 41 58 60 34 77 67 61 153 217 108 117 122 139 138 136 134 135 135 144 149 151 149 147 139 139 145 147 143 139 130 109 97 95 97 100 99 94 76 71
299 295 258 275 261 278 55 56 357 301 55 93 114 159 84 79 101 145 163 122 119 126 127 138 137 135 134 138 149 152 153 154 151 144 144 150 157 156 157 149 127 104 100 98 94 87 76 61 35
300 262 281 237 255 274 222 148 203 255 358 67 116 43 64 102 78 102 123 119 121 126 139 140 136 134 135 137 147 155 155 156 154 151 151 155 162 168 169 163 146 130 120 117 98 60 15 347 317
286 284 236 254 270 297 349 137 234 168 138 14 60 79 73 25 103 119 129 124 124 130 130 138 136 135 136 139 143 148 152 155 158 155 156 160 167 174 174 172 168 160 166 184 262 310 304 294 293
273 265 274 268 265 305 54 25 335 42 39 17 345 116 102 90 105 122 119 128 132 123 128 138 137 136 135 136 139 142 144 151 156 157 156 161 166 175 179 182 184 193 222 241 263 264 272 279 277
279 269 276 275 303 148 316 32 332 72 78 19 351 321 132 112 112 122 129 132 131 122 134 140 143 142 139 137 139 142 146 151 155 154 158 160 168 177 185 193 208 225 237 251 262 265 264 270 276
257 279 284 288 299 78 261 37 354 87 107 91 279 285 0 9 109 128 135 130 126 124 128 137 138 141 138 138 142 145 152 158 158 160 161 167 171 183 195 211 221 233 242 250 257 261 266 272 274
260 271 280 281 284 289 117 352 15 350 151 167 212 66 62 2 328 98 87 93 121 127 126 128 125 134 134 137 143 153 163 171 166 170 167 183 186 194 213 217 226 246 262 264 262 262 262 267 269
258 259 270 274 274 1 20 322 47 60 108 72 308 117 155 121 41 47 37 27 32 22 120 131 135 170 161 147 149 164 171 188 190 187 185 184 206 215 226 235 226 251 261 265 266 264 265 269 271
241 250 257 267 297 337 158 289 321 63 33 3 26 124 120 111 62 57 44 26 22 25 33 35 57 98 122 129 68 142 174 205 214 213 209 189 189 192 184 250 244 256 267 262 262 263 265 272 284
239 239 262 279 318 315 325 331 344 105 67 111 176 180 97 93 90 93 72 42 21 26 27 18 5 26 86 120 127 171 179 245 245 217 213 230 195 222 232 239 242 249 258 252 292 271 277 277 275
249 240 258 275 295 321 293 306 302 294 155 178 189 104 109 100 106 119 148 152 138 21 26 360 327 301 241 266 333 122 241 290 238 200 196 206 239 185 230 315 312 222 211 267 260 204 344 294 293
245 255 263 276 275 262 234 277 327 309 293 2 91 62 83 102 118 135 133 139 144 137 171 177 188 274 317 309 236 295 323 24 146 176 183 217 253 86 325 297 284 282 313 319 304 329 298 251 240
256 272 262 270 269 275 236 260 295 284 307 91 62 60 89 85 90 90 94 138 171 173 175 199 206 221 218 261 333 351 329 311 300 168 139 178 238 299 243 269 279 267 310 300 304 306 291 280 289
277 282 270 259 238 245 291 286 266 275 49 81 82 68 65 64 59 53 47 48 18 221 230 202 222 183 193 64 16 1 337 350 273 153 114 262 229 285 307 315 308 312 287 285 317 297 281 301 296
252 245 258 224 206 232 152 270 58 18 345 102 97 84 69 59 62 50 48 37 34 50 64 56 87 117 159 147 65 13 335 355 352 358 26 307 320 22 326 318 344 322 322 318 306 302 299 305 293
215 247 237 136 147 200 176 177 61 9 313 95 83 84 77 65 54 48 49 42 40 41 39 45 49 43 27 50 54 37 8 319 314 320 325 352 6 2 326 325 316 318 340 332 293 283 290 280 278
305 237 216 256 157 178 211 117 67 6 62 82 85 82 76 77 66 52 47 47 48 48 46 46 44 46 34 37 67 59 89 103 255 315 358 358 10 1 352 347 338 313 317 306 318 298 288 281 275
336 314 327 157 122 170 119 77 53 4 51 89 95 94 87 83 76 69 58 48 42 42 42 42 42 52 47 23 38 38 42 55 52 48 345 21 23 7 1 348 334 327 334 308 311 299 297 293 283
287 277 279 296 141 170 186 139 129 107 16 55 99 100 100 96 88 75 61 59 50 43 34 30 32 37 38 30 35 28 38 47 35 24 8 12 10 355 342 340 341 335 330 327 320 301 289 283 287
257 268 270 259 295 191 202 180 171 142 120 82 64 73 79 81 85 85 79 66 58 51 44 39 34 32 27 29 16 23 28 26 12 360 356 355 350 346 345 345 333 331 323 319 322 316 308 303 292
267 333 269 313 296 266 223 251 171 151 152 123 113 77 64 75 66 63 58 65 64 61 59 46 42 36 28 24 22 24 16 4 352 350 343 342 354 359 4 355 1 358 349 340 338 343 329 313 304
334 358 309 294 285 275 256 250 63 148 143 133 128 122 125 85 79 59 70 52 53 46 45 40 33 32 27 24 22 17 8 359 347 346 344 348 346 351 353 347 354 348 345 342 341 334 326 332 316
314 300 284 270 260 257 254 276 166 181 166 150 165 139 112 73 64 57 48 52 47 38 32 34 27 25 15 17 14 13 7 356 351 350 351 353 352 344 342 339 350 349 344 335 328 325 325 320 318
221 258 267 262 240 249 275 254 102 151 149 169 161 141 121 114 74 60 42 26 46 26 30 23 23 17 13 12 12 10 8 357 355 1 353 350 337 335 335 337 338 333 329 323 327 324 312 309 312
320 320 316 304 306 331 211 106 121 95 143 140 129 126 138 170 98 71 46 25 19 24 29 25 13 12 11 12 8 3 5 0 353 346 339 331 330 331 330 333 330 329 324 322 320 316 309 304 304
304 273 333 321 288 281 284 89 81 114 121 128 143 167 164 159 113 118 182 53 25 19 31 19 12 8 11 6 5 5 357 351 342 336 333 332 336 333 334 330 321 315 322 322 317 310 315 317 305
244 302 316 280 279 283 310 103 134 163 159 159 159 169 167 187 184 94 54 58 38 22 17 19 12 9 11 5 3 354 349 343 342 337 337 334 332 328 331 323 319 332 338 330 339 319 321 323 320
211 273 323 317 302 299 297 55 39 169 153 162 162 161 162 67 48 37 42 56 31 18 11 11 6 7 6 2 355 352 354 351 350 350 345 341 335 329 326 337 335 343 348 2 8 358 1 7 21
294 289 304 303 303 302 310 31 41 93 116 136 98 109 82 60 39 7 33 47 29 18 10 5 3 7 5 3 3 3 1 357 358 353 345 344 344 347 341 338 340 342 344 354 2 7 7 7 3
Height
764 762 761 755 776 758 798 808 767 731 725 712 707 714 726 725 748 784 750 749 757 760 766 771 774 775 777 780 783 785 788 792 794 796 798 800 803 805 807 809 810 810 812 813 813 813 813 814 814
765 763 757 754 776 776 767 769 785 748 718 712 712 713 724 739 725 742 746 753 758 762 770 774 776 779 781 783 786 787 789 792 795 798 799 801 803 805 807 809 810 811 812 813 814 814 814 814 814
763 763 761 757 758 765 776 769 780 743 716 715 720 713 721 738 728 736 746 753 760 766 771 775 779 782 784 786 789 791 792 795 797 799 801 803 804 805 807 809 810 811 813 813 814 814 814 815 815
762 752 751 769 758 734 734 730 719 716 714 712 714 734 729 729 734 743 749 755 761 769 774 776 780 783 786 788 791 792 794 796 799 800 802 803 805 807 807 809 811 811 812 813 813 814 814 814 815
759 755 768 759 744 725 716 715 715 727 735 726 726 737 740 735 742 749 755 760 765 770 774 778 782 785 787 791 792 795 796 798 799 801 802 803 804 807 808 809 810 811 812 812 812 813 813 813 813
765 752 776 766 745 744 720 715 717 741 745 751 757 759 746 736 749 758 762 763 767 772 777 779 782 785 787 790 793 795 797 799 801 801 802 804 806 807 808 809 810 810 810 811 812 812 811 812 812
768 767 771 756 747 745 728 713 720 735 755 775 770 775 775 753 751 756 761 766 769 774 781 784 786 789 789 791 793 795 796 797 798 800 801 803 804 806 807 808 809 810 810 810 810 810 810 809 809
758 761 770 757 752 741 722 720 711 721 749 754 747 760 792 781 755 761 763 768 772 779 782 789 792 794 795 793 793 794 796 798 797 798 798 802 802 804 805 806 807 808 809 809 808 808 808 807 806
750 773 777 760 745 734 722 729 711 713 741 760 746 757 769 775 782 768 775 776 778 783 783 786 793 794 796 794 794 796 798 802 801 801 799 798 800 799 803 804 805 804 804 805 805 806 806 806 805
760 771 765 737 726 730 736 730 724 737 744 744 749 764 767 788 772 783 787 792 790 788 791 791 794 795 798 797 797 798 802 802 804 805 803 798 797 800 801 801 800 802 800 800 800 802 804 806 806
752 766 746 734 724 722 730 732 721 740 756 745 748 738 757 769 779 786 790 795 801 796 790 802 804 802 799 798 798 802 804 807 807 802 805 800 798 798 799 797 798 799 798 798 800 801 804 807 804
756 742 740 735 725 731 739 733 736 732 743 741 743 745 758 770 777 781 777 783 803 806 809 816 819 815 801 799 801 800 802 804 805 803 802 800 798 796 798 797 797 798 797 798 799 800 804 807 803
746 743 735 730 730 731 735 743 741 737 729 731 736 753 767 773 778 783 786 795 797 806 811 810 809 817 807 804 797 797 800 789 790 800 798 800 795 794 798 798 797 796 796 797 798 797 799 802 800
734 738 740 733 735 734 742 744 743 741 732 742 754 768 778 787 792 796 799 804 807 803 800 800 801 806 798 799 800 800 804 802 794 790 793 798 798 798 798 798 795 795 796 795 795 796 797 797 797
739 754 746 740 738 743 737 756 757 739 739 756 767 780 785 795 799 806 810 812 814 809 806 808 808 804 800 800 797 799 802 795 796 774 783 793 795 794 797 798 797 795 794 794 793 793 793 792 795
755 752 767 737 739 740 749 777 751 743 746 762 775 788 794 799 805 807 813 812 808 807 807 804 803 800 800 799 800 800 800 801 763 755 763 790 789 791 796 798 798 796 795 794 793 792 790 790 791
752 767 755 741 734 743 752 768 758 750 751 766 782 793 801 806 806 812 814 815 811 810 808 806 806 805 804 802 800 798 795 793 812 802 793 797 791 792 799 797 795 795 794 793 792 791 789 789 790
761 756 745 752 741 745 752 764 762 762 761 775 791 798 804 808 812 815 815 819 817 816 814 812 807 805 803 806 803 801 801 806 810 809 801 800 796 800 800 797 794 794 794 793 792 790 789 788 788
751 753 752 741 738 752 760 775 781 776 766 776 791 801 808 810 816 819 822 820 820 818 817 813 812 807 803 810 807 811 809 810 808 810 807 806 802 801 802 800 796 793 793 792 790 789 789 787 787
757 762 761 744 738 753 760 775 780 783 787 785 791 800 809 813 819 822 823 823 824 821 817 813 814 809 811 817 815 811 811 809 810 811 810 809 806 805 802 801 797 793 794 792 788 788 787 785 785
760 764 760 760 744 742 759 777 784 789 792 796 802 809 813 817 819 822 825 826 828 827 827 825 824 817 815 813 812 806 805 806 809 811 810 806 806 805 804 800 795 792 791 791 788 786 785 783 783
769 743 750 759 766 780 752 790 781 791 795 799 803 808 819 819 826 825 825 826 827 829 830 829 826 824 821 817 811 810 812 813 814 812 812 809 806 804 799 799 794 792 790 789 787 785 783 783 782
763 752 758 759 765 767 763 774 795 794 794 804 806 808 816 820 823 827 826 826 826 827 826 826 825 822 821 820 820 818 817 815 814 813 811 806 805 800 798 797 795 795 791 788 786 784 782 781 779
753 763 762 760 766 789 764 767 798 794 794 801 807 806 815 819 824 827 826 827 828 829 829 828 826 825 824 823 823 821 820 819 816 812 810 807 801 801 800 795 793 793 790 788 784 783 781 780 776
759 773 794 792 786 789 751 769 780 779 788 798 799 810 818 820 825 827 828 827 828 831 831 830 830 830 828 826 823 824 821 820 817 813 813 807 806 804 799 795 793 792 788 786 782 779 780 778 774
769 770 792 814 801 782 762 786 794 781 787 791 802 815 824 824 823 826 829 830 830 832 833 833 833 831 830 828 828 827 823 822 817 816 815 813 810 805 800 794 791 789 788 785 779 780 779 775 773
773 780 762 784 777 788 769 801 799 801 809 814 821 826 826 825 823 827 828 830 832 834 834 835 835 833 831 829 827 824 821 819 818 817 815 811 804 802 797 795 794 795 786 782 780 779 776 773 771
770 762 791 781 809 810 778 799 807 805 811 812 819 821 824 822 821 821 825 830 834 837 838 839 838 836 834 833 831 828 826 823 821 817 813 809 806 803 800 798 795 790 784 782 779 776 773 770 768
774 778 777 778 784 806 808 798 777 786 792 803 805 809 813 814 816 821 825 830 835 839 841 840 840 838 836 835 832 829 826 823 821 818 815 811 809 805 802 798 794 790 787 783 779 775 773 770 768
773 781 782 803 808 791 795 802 778 778 787 792 801 808 814 819 820 825 827 832 838 842 844 844 842 840 839 836 833 830 827 824 821 819 815 812 808 804 801 798 794 791 788 784 781 777 775 773 770